[[{"header":{"parameterUnit":"m.s-1","parameterCategory":1,"la1":30.2991,"la2":30.254,"lo1":-89.0895,"lo2":-89.0444,"dx":0.0017,"dy":0.0017,"nx":28,"ny":28,"refTime":"2022-11-12T09:00:00:Z","depth":0,"parameterNumber":2,"parameterNumberName":"U-component_of_WINDS"},"data":[0,0,0,0,0,0,0,0,0,0,0,0,0,0,0,0,0,0,0,0,0,0,0,0,0,0,0,0,0,0,0,0,0,0,0,0,0,0,0,0,0,0,0,0,0,0,0,0,0,0,0,0,0,0,0,0,0,0,2.5898,2.5899,0,2.603,2.6032,2.6033,2.6015,2.6013,2.601,2.6008,2.6148,2.6154,2.616,0,0,0,0,0,0,0,0,0,0,0,0,0,2.5636,2.5641,2.5898,2.5899,2.5901,2.603,2.6032,2.6034,2.6015,2.6012,2.601,2.6007,2.6146,2.6153,2.616,0,0,0,0,0,0,0,0,0,0,0,0,0,2.5757,2.5643,2.5897,2.5907,2.5909,2.603,2.6032,2.6034,2.6016,2.6012,2.6009,2.6006,2.6144,2.6153,2.6161,2.6281,0,0,2.6188,2.6191,0,0,0,0,0,0,0,0,2.575,2.5767,2.5904,2.5907,2.5909,2.6002,2.5991,2.6117,2.6017,2.5976,2.6008,2.6004,2.6103,2.6115,2.6147,2.6288,2.6294,2.6188,2.6194,2.6197,2.62,0,0,0,0,0,0,0,2.5742,2.5761,2.595,2.5906,2.591,2.5907,2.5921,2.6015,2.6056,2.5979,2.5978,2.5993,2.6104,2.6139,2.615,2.6296,2.6188,2.6196,2.6201,2.6205,2.6547,2.6551,0,0,0,0,0,0,2.573,2.5754,2.5946,2.5954,2.582,2.5915,2.593,2.5976,2.6055,2.6064,2.5996,2.5992,2.6125,2.614,2.6155,2.6304,2.6197,2.6206,2.6211,2.6544,2.6548,2.6552,0,0,0,0,0,0,2.5725,2.5747,2.5941,2.5854,2.5878,2.5923,2.5975,2.598,2.6015,2.6068,2.6076,2.6024,2.6123,2.6143,2.6251,2.6308,2.6209,2.6217,2.6539,2.6545,2.655,2.6601,0,0,0,0,0,0,2.5717,2.5746,2.579,2.5855,2.5883,2.6032,2.5978,2.5985,2.603,2.6026,2.6096,2.6105,2.6122,2.6238,2.6259,2.6319,2.6224,2.6534,2.6542,2.6548,2.6594,2.6608,2.6619,0,0,0,0,0,2.5708,2.5799,2.5792,2.5815,2.5939,2.6035,2.6052,2.6069,2.6034,2.6081,2.6116,2.6103,2.6298,2.6249,2.6273,2.6336,2.653,2.6539,2.6548,2.6589,2.6605,2.6619,0,0,0,0,0,0,2.5739,2.5807,2.5801,2.5915,2.597,2.6032,2.6091,2.6085,2.6151,2.6145,2.6165,2.6181,2.6291,2.6324,2.6268,2.6459,2.641,2.6424,2.6433,2.6449,2.6461,2.6452,2.6231,0,0,0,0,0,2.5759,2.583,2.5886,2.5982,2.601,2.6046,2.6088,2.6097,2.6155,2.6178,2.6221,2.6279,2.6354,2.6403,2.6475,2.6599,2.6617,2.6655,2.6667,2.6677,2.6689,2.6762,2.678,2.6581,2.6581,2.6581,0,0,2.5802,2.5848,2.5891,2.599,2.6033,2.6109,2.6065,2.6146,2.6203,2.6191,2.6296,2.633,2.6397,2.6514,2.6568,2.6545,2.6748,2.6688,2.6696,2.6703,2.6773,2.6792,2.6808,2.6587,2.6586,2.6585,0,0,2.5918,2.5958,2.6044,2.6089,2.6155,2.6179,2.62,2.6265,2.6287,2.6392,2.6386,2.6455,2.6583,2.6632,2.6674,2.6814,2.6806,2.6837,2.6902,2.6973,2.6988,2.7002,2.7055,2.7074,2.6848,2.6849,2.6849,0,2.5963,2.6074,2.6089,2.6172,2.6217,2.621,2.6299,2.6342,2.6429,2.6462,2.6434,2.6598,2.6642,2.6773,2.6807,2.684,2.6868,2.6829,2.6984,2.6999,2.7012,2.7063,2.7083,2.6852,2.6852,2.6851,2.6851,0,2.6128,2.6206,2.6268,2.6352,2.6404,2.6489,2.652,2.6572,2.6577,2.6605,2.6715,2.6768,2.6852,2.6884,2.6889,2.7018,2.7002,2.6979,2.6931,2.7034,2.7083,2.7102,2.6857,2.6856,2.6855,2.6854,0,0,2.6266,2.6359,2.6382,2.6422,2.6496,2.6558,2.6645,2.6727,2.6772,2.6834,2.691,2.702,2.7001,2.7048,2.706,2.7121,2.7233,2.7092,2.7094,2.7119,2.7382,2.74,2.7422,2.7228,2.7232,2.7235,2.7378,0,2.6391,2.6543,2.6561,2.6698,2.6772,2.6768,2.6845,2.69,2.693,2.6999,2.7032,2.7111,2.7078,2.7108,2.7168,2.7207,2.7287,2.7196,2.7302,2.7306,2.7287,2.7446,2.7465,2.7596,2.7396,2.7399,2.7402,0,2.6557,2.6623,2.6767,2.6835,2.6867,2.6935,2.7014,2.7079,2.7144,2.7162,2.7217,2.7221,2.7315,2.7263,2.7394,2.7332,2.7377,2.7403,2.7409,2.742,2.7361,2.7465,2.7639,2.7659,2.7431,2.7429,2.7426,0,2.6647,2.6772,2.6876,2.6909,2.699,2.7039,2.7075,2.7137,2.7186,2.7256,2.7289,2.7369,2.7413,2.7476,2.7504,2.7462,2.7635,2.7584,2.7655,2.7655,2.7693,2.769,2.7878,2.7718,2.7718,2.7717,2.7717,0,2.6786,2.6875,2.6917,2.6981,2.7082,2.7104,2.7204,2.7239,2.7294,2.7367,2.7368,2.7437,2.7468,2.7543,2.7566,2.7674,2.7693,2.7712,2.7718,2.7713,2.7711,2.7744,2.7736,2.7723,2.7722,2.7721,2.772,0,2.6903,2.6935,2.7048,2.7116,2.7135,2.7207,2.7267,2.733,2.736,2.7453,2.7476,2.7523,2.7612,2.7645,2.7753,2.7769,2.7894,2.7891,2.7872,2.7874,2.7944,2.7938,2.8161,2.8193,2.801,2.8012,2.8013,0,2.6991,2.7059,2.7135,2.7184,2.7222,2.7299,2.735,2.7376,2.7429,2.751,2.7565,2.7653,2.7725,2.7868,2.7913,2.7997,2.7998,2.807,2.801,2.8005,2.8002,2.7999,2.8007,2.8081,2.8083,2.8085,2.8086,0,2.7143,2.7157,2.7229,2.7308,2.7369,2.7433,2.7495,2.7535,2.757,2.7631,2.7721,2.7777,2.7888,2.7977,2.8064,2.8105,2.8104,2.8105,2.8126,2.8123,2.8111,2.8122,2.7905,2.81,2.8098,2.8097,2.8096,2.8096,2.725,2.7313,2.7377,2.7459,2.7508,2.7567,2.7631,2.767,2.7745,2.7837,2.7848,2.7946,2.8014,2.813,2.8175,2.8254,2.8235,2.8265,2.8273,2.8281,2.8288,2.8097,2.827,2.8269,2.8269,2.8269,2.8268,0,2.7406,2.7447,2.7522,2.761,2.7676,2.7667,2.7736,2.7793,2.7878,2.7941,2.8012,2.8118,2.8206,2.8259,2.8348,2.8401,2.8403,2.8424,2.8421,2.8432,2.8298,2.8272,2.8421,2.8421,2.8421,2.8421,2.8421,2.8421,2.7494,2.76,2.7622,2.7754,2.7796,2.7891,2.7932,2.7988,2.8038,2.8157,2.8229,2.8263,2.8323,2.8417,2.8498,2.8512,2.8546,2.8569,2.8582,2.8456,2.844,2.8425,2.8401,2.8575,2.8576,2.8709,2.8711,2.8712]},{"header":{"parameterUnit":"m.s-1","parameterCategory":1,"la1":30.2991,"la2":30.254,"lo1":-89.0895,"lo2":-89.0444,"dx":0.0017,"dy":0.0017,"nx":28,"ny":28,"refTime":"2022-11-12T09:00:00:Z","depth":0,"parameterNumber":3,"parameterNumberName":"V-component_of_WINDS"},"data":[0,0,0,0,0,0,0,0,0,0,0,0,0,0,0,0,0,0,0,0,0,0,0,0,0,0,0,0,0,0,0,0,0,0,0,0,0,0,0,0,0,0,0,0,0,0,0,0,0,0,0,0,0,0,0,0,0,0,-5.4199,-5.4198,0,-5.4118,-5.4117,-5.4116,-5.4063,-5.4062,-5.4062,-5.4062,-5.397,-5.3968,-5.3966,0,0,0,0,0,0,0,0,0,0,0,0,0,-5.43,-5.4298,-5.4199,-5.4198,-5.4197,-5.4118,-5.4117,-5.4116,-5.4063,-5.4062,-5.4062,-5.4062,-5.3971,-5.3968,-5.3966,0,0,0,0,0,0,0,0,0,0,0,0,0,-5.4241,-5.4297,-5.4199,-5.4161,-5.4157,-5.4119,-5.4117,-5.4116,-5.4063,-5.4062,-5.4062,-5.4061,-5.3972,-5.3968,-5.3965,-5.3955,0,0,-5.3955,-5.3954,0,0,0,0,0,0,0,0,-5.4244,-5.4237,-5.4168,-5.4164,-5.4159,-5.41,-5.4119,-5.4062,-5.4063,-5.4098,-5.4062,-5.4061,-5.4013,-5.4006,-5.3992,-5.3951,-5.3947,-5.3955,-5.3953,-5.3952,-5.3951,0,0,0,0,0,0,0,-5.4248,-5.424,-5.4167,-5.4167,-5.4162,-5.4146,-5.4137,-5.4108,-5.4059,-5.4095,-5.4091,-5.4083,-5.401,-5.3995,-5.399,-5.3946,-5.3955,-5.3952,-5.395,-5.3949,-5.3891,-5.3891,0,0,0,0,0,0,-5.426,-5.4244,-5.4169,-5.4164,-5.4202,-5.4144,-5.4134,-5.4119,-5.4059,-5.405,-5.4083,-5.4081,-5.4001,-5.3993,-5.3986,-5.397,-5.3952,-5.3949,-5.3947,-5.3891,-5.3891,-5.3892,0,0,0,0,0,0,-5.4262,-5.4253,-5.4173,-5.4203,-5.4192,-5.4143,-5.4127,-5.4118,-5.4103,-5.4051,-5.4041,-5.4077,-5.4,-5.3991,-5.3964,-5.3966,-5.3947,-5.3945,-5.389,-5.3891,-5.3891,-5.3938,0,0,0,0,0,0,-5.4265,-5.4255,-5.4252,-5.4204,-5.419,-5.4155,-5.4127,-5.4117,-5.4099,-5.4094,-5.4042,-5.4033,-5.3999,-5.3969,-5.3961,-5.3961,-5.3942,-5.389,-5.3891,-5.3891,-5.3936,-5.394,-5.3943,0,0,0,0,0,-5.4269,-5.4267,-5.4253,-5.4244,-5.4187,-5.4155,-5.4147,-5.4111,-5.4099,-5.4095,-5.4061,-5.4035,-5.3967,-5.3967,-5.3957,-5.3956,-5.3889,-5.389,-5.3891,-5.3934,-5.3939,-5.3943,0,0,0,0,0,0,-5.4314,-5.426,-5.4243,-5.4226,-5.4196,-5.4146,-5.414,-5.4117,-5.4087,-5.4084,-5.4037,-5.4026,-5.4003,-5.3977,-5.3977,-5.3943,-5.3925,-5.3924,-5.3961,-5.3965,-5.3969,-5.3975,-5.3939,0,0,0,0,0,-5.4323,-5.4304,-5.4257,-5.4246,-5.4232,-5.4189,-5.4173,-5.4148,-5.4114,-5.41,-5.4064,-5.4029,-5.3999,-5.3981,-5.3951,-5.3932,-5.3919,-5.3927,-5.3931,-5.3934,-5.3933,-5.3919,-5.3922,-5.3894,-5.3894,-5.3894,0,0,-5.434,-5.4308,-5.4298,-5.4254,-5.4228,-5.4207,-5.4178,-5.4157,-5.414,-5.4095,-5.4069,-5.4041,-5.3998,-5.3976,-5.3963,-5.3953,-5.3938,-5.3935,-5.3938,-5.3935,-5.392,-5.3923,-5.3925,-5.3895,-5.3895,-5.3895,0,0,-5.4359,-5.4334,-5.4322,-5.4297,-5.4258,-5.4229,-5.4227,-5.418,-5.4161,-5.4134,-5.41,-5.4077,-5.4028,-5.3999,-5.3978,-5.3987,-5.396,-5.3978,-5.3997,-5.3985,-5.3987,-5.3988,-5.399,-5.3991,-5.3978,-5.3978,-5.3978,0,-5.4384,-5.4353,-5.4318,-5.4299,-5.428,-5.4242,-5.4228,-5.4204,-5.4156,-5.4143,-5.4132,-5.407,-5.4039,-5.4008,-5.401,-5.3995,-5.3988,-5.3983,-5.399,-5.3991,-5.3992,-5.3993,-5.3994,-5.398,-5.398,-5.398,-5.398,0,-5.4385,-5.4364,-5.4359,-5.4317,-5.4297,-5.4281,-5.4241,-5.4224,-5.4201,-5.4172,-5.4144,-5.4106,-5.4067,-5.4058,-5.4034,-5.4023,-5.4017,-5.3999,-5.398,-5.3998,-5.3998,-5.3998,-5.3984,-5.3983,-5.3982,-5.3981,0,0,-5.443,-5.437,-5.4368,-5.4348,-5.4303,-5.4285,-5.4266,-5.4231,-5.4217,-5.4185,-5.4166,-5.4126,-5.4109,-5.4085,-5.4057,-5.4046,-5.4054,-5.4029,-5.4027,-5.4034,-5.4038,-5.4051,-5.4052,-5.4037,-5.4037,-5.4037,-5.4041,0,-5.4441,-5.4409,-5.4376,-5.4354,-5.4333,-5.4296,-5.4279,-5.4248,-5.4221,-5.4197,-5.4165,-5.4138,-5.4118,-5.4103,-5.4091,-5.4056,-5.4054,-5.4055,-5.4016,-5.4015,-5.4027,-5.4052,-5.4066,-5.4072,-5.4041,-5.4041,-5.4041,0,-5.445,-5.4423,-5.44,-5.4356,-5.4346,-5.4332,-5.4297,-5.4276,-5.4238,-5.4219,-5.4193,-5.4164,-5.4139,-5.4124,-5.4088,-5.4089,-5.4071,-5.4051,-5.4051,-5.4044,-5.4028,-5.4045,-5.4073,-5.4074,-5.404,-5.404,-5.404,0,-5.4484,-5.4442,-5.4422,-5.4406,-5.4355,-5.4346,-5.4323,-5.4286,-5.4267,-5.4235,-5.4222,-5.4187,-5.4167,-5.414,-5.4101,-5.4093,-5.4068,-5.4049,-5.4048,-5.4049,-5.4044,-5.4044,-5.4068,-5.4034,-5.4034,-5.4034,-5.4034,0,-5.45,-5.4487,-5.4436,-5.4424,-5.4407,-5.4369,-5.4352,-5.4326,-5.4293,-5.4273,-5.4238,-5.4219,-5.417,-5.4144,-5.4113,-5.4087,-5.4078,-5.406,-5.4051,-5.4062,-5.4065,-5.4049,-5.4047,-5.4035,-5.4034,-5.4034,-5.4034,0,-5.4535,-5.4501,-5.4477,-5.4431,-5.4419,-5.4408,-5.4368,-5.4353,-5.4324,-5.4299,-5.429,-5.4244,-5.4212,-5.4171,-5.4125,-5.4104,-5.4081,-5.4069,-5.4094,-5.4089,-5.4091,-5.4091,-5.4103,-5.4102,-5.4072,-5.4072,-5.4072,0,-5.4546,-5.4536,-5.4489,-5.4475,-5.4455,-5.4431,-5.4412,-5.4374,-5.4355,-5.4312,-5.4301,-5.4267,-5.4238,-5.4188,-5.4148,-5.4112,-5.4098,-5.4105,-5.4092,-5.4103,-5.4096,-5.4097,-5.4095,-5.4108,-5.4109,-5.4109,-5.4109,0,-5.457,-5.4554,-5.453,-5.45,-5.4479,-5.4453,-5.4424,-5.4413,-5.4368,-5.4348,-5.4317,-5.4294,-5.4249,-5.4214,-5.4173,-5.4147,-5.4119,-5.4114,-5.4112,-5.4122,-5.4137,-5.4128,-5.4102,-5.4114,-5.4113,-5.4113,-5.4113,-5.4112,-5.4593,-5.4581,-5.4547,-5.4521,-5.4496,-5.4471,-5.4455,-5.4425,-5.4399,-5.4361,-5.4339,-5.4307,-5.4268,-5.4212,-5.4186,-5.4159,-5.4149,-5.4146,-5.4144,-5.4144,-5.4147,-5.4143,-5.4151,-5.4151,-5.4151,-5.4151,-5.4151,0,-5.4614,-5.4591,-5.4567,-5.453,-5.4509,-5.4489,-5.4456,-5.4439,-5.4413,-5.4381,-5.4353,-5.4316,-5.4282,-5.4241,-5.4204,-5.419,-5.4176,-5.4181,-5.4181,-5.4175,-5.4159,-5.4164,-5.4192,-5.4192,-5.4192,-5.4192,-5.4192,-5.4192,-5.4623,-5.4602,-5.4582,-5.4547,-5.4523,-5.4495,-5.4478,-5.4453,-5.4427,-5.4388,-5.4361,-5.4336,-5.4298,-5.4259,-5.4226,-5.4214,-5.4201,-5.421,-5.4194,-5.418,-5.4176,-5.4172,-5.4177,-5.4208,-5.4208,-5.4212,-5.4212,-5.4212]}]]